weather.gov     
National Weather Service

Regional Weather Roundup
NWS Homepage
This page is being discontinued on March 12, 2014.
The same data is available at this site. Please update your bookmarks.
Thank you, and we apologize for the inconvenience.
Please send an email to SR-SRH.Webmaster@noaa.gov with any concerns.


Current Version
Previous Version:    01  02  03  04  05  06  07  08  09  10  11  12  13  14  15  16  17  18  19  20  21  22  23  24  25  26  27  28  
[Printable]
881
ASUS42 KFFC 222203
RWRGA
WEATHER ROUNDUP FOR GEORGIA
NATIONAL WEATHER SERVICE PEACHTREE CITY GA
600 PM EDT MON SEP 22 2014

NOTE: "FAIR" INDICATES FEW OR NO CLOUDS BELOW 12,000 FEET WITH NO
SIGNIFICANT WEATHER AND/OR OBSTRUCTIONS TO VISIBILITY.

* = USE WITH CAUTION. THE STATIONS MARKED WITH AN ASTERISK MAY NOT
REPORT WEATHER SUCH AS PRECIPITATION, FOG, OR THUNDER AND ARE NOT
QUALITY CONTROLLED BY NWS.

THE REMARK "TC" DENOTES TEMPERATURE READING IN DEGREES CELSIUS.

GAZ001>058-222300-
NORTH GEORGIA

CITY           SKY/WX    TMP DP  RH WIND       PRES   REMARKS
ATLANTA        MOSUNNY   77  52  41 N17       30.04R
ATHENS         SUNNY     74  58  57 VRB5      30.04S
CHAMBLEE       SUNNY     77  51  40 NW12      30.04R
PEACHTREE CITY SUNNY     79  53  40 N14       30.04R
ROME           SUNNY     76  50  40 N13       30.07S
WEST ATLANTA   SUNNY     77  52  41 NW8       30.04S
GAINESVILLE    CLOUDY    80  50  34 N3        30.05S
CARTERSVILLE   SUNNY     75  48  38 N12G21    30.07S


CITY           SKY/WX    TMP DP  RH WIND       PRES   REMARKS
DALTON*        SUNNY     72  50  46 N12G17    30.09S
LAWRENCEVILLE* SUNNY    N/A N/A N/A NW5       30.02S
MARIETTA       MOSUNNY   76  52  42 NW14      30.05S
KENNESAW*      SUNNY     73  48  40 NW8G17    30.08R
$$

GAZ059>098-102>109-222300-
CENTRAL GEORGIA

CITY           SKY/WX    TMP DP  RH WIND       PRES   REMARKS
AUGUSTA-BUSH   LGT RAIN  69  64  84 N7        30.03F
AUGUSTA-DANIEL CLOUDY    68  63  84 N6        30.05F
COLUMBUS       SUNNY     75  64  68 S3        30.00F
MACON          PTSUNNY   69  67  93 N3        30.01S
ROBINS AFB     PTSUNNY   69  67  94 N1        30.02R


CITY           SKY/WX    TMP DP  RH WIND       PRES   REMARKS
LAGRANGE*      SUNNY     82  54  37 N7        30.03R
SYLVANIA*      CLOUDY    74  73  94 NE7       30.01F
$$

GAZ099>101-110>166-222300-
SOUTH GEORGIA

CITY           SKY/WX    TMP DP  RH WIND       PRES   REMARKS
SAVANNAH       PTSUNNY   73  65  75 NE8       30.01R
VALDOSTA       PTSUNNY   84  70  62 CALM      29.95R
ALMA           MOSUNNY   80  64  58 N12G18    29.98R
ST SIMONS      PTSUNNY   82  66  58 SE12      29.96F
FT STEWART     PTSUNNY   76  65  69 N10       29.99R
ALBANY         LGT RAIN  72  68  87 SW5       30.02S
HUNTER AFB     PTSUNNY   75  66  73 NE9       29.99R
MOODY AFB      MOSUNNY   87  60  40 N3        29.96R
BRUNSWICK      PTSUNNY   84  61  45 SE6       29.97S


CITY           SKY/WX    TMP DP  RH WIND       PRES   REMARKS
BAINBRIDGE*    RAIN      73  70  88 NW8       30.00R
MOULTRIE*      CLOUDY    77  68  73 N13       29.99R
VIDALIA*       LGT RAIN  73  66  78 W5        30.03R
WAYCROSS*      SUNNY     89  69  50 CALM      29.95R HX  93
DOUGLAS*       SUNNY     81  63  54 N15G21    30.00R
$$




U.S. Dept. of Commerce
NOAA National Weather Service
1325 East West Highway
Silver Spring, MD 20910
E-mail: w-nws.webmaster@noaa.gov
Page last modified: May 16, 2007
NATIONAL WEATHER SERVICE: for Safety, for Work, for Fun - FOR LIFE